FloripaSat 1
1 44885U 19093G   25213.82693099  .00004797  00000-0  40089-3 0  9991
2 44885  97.8146 301.5533 0010677  28.3471 331.8331 14.98948832304726
RS-44
1 44909U 19096E   25213.32619050  .00000028  00000-0  62723-4 0  9994
2 44909  82.5211 192.2342 0217557 171.9465 188.5223 12.79742180261436
UPMSat 2
1 46276U 20061E   25213.25949497  .00104726  00000-0  65996-3 0  9994
2 46276  97.2391 289.6743 0001141 170.3450 189.7838 15.76361655273746
SALSAT
1 46495U 20068K   25213.50410867  .00008117  00000-0  34398-3 0  9995
2 46495  97.8641 194.0109 0010445 348.2270  11.8720 15.23383842266584
CubeSX-Sirius-HSE
1 47951U 21022V   25157.62701764  .07883385  25648-5  89537-3 0  9993
2 47951  97.4004  72.1904 0010275 223.9924 136.0557 16.36879307233400
CubeSX-HSE
1 47952U 21022W   25157.69972699  .06655353  25454-5  93288-3 0  9992
2 47952  97.3980  72.5414 0010307 219.3637 140.6911 16.34906352233436
GRBAlpha
1 47959U 21022AD  25160.45426279  .07940347  25506-5  90589-3 0  9995
2 47959  97.3899  75.6235 0011032 227.2558 132.7812 16.36806138232695
TUBIN
1 48900U 21059X   25213.81138200  .00047490  00000-0  48503-3 0  9991
2 48900  97.6774  27.5446 0002913  45.8571 314.2927 15.64923967228356
LEDSAT
1 49069U 21073D   25213.66253539  .00105072  00000-0  93373-3 0  9996
2 49069  97.3850 297.6822 0008705 231.0086 129.0400 15.68150649219731
CUTE
1 49263U 21088D   25213.68821607  .00020190  00000-0  36975-3 0  9999
2 49263  97.4472 291.5563 0007783  54.3436 305.8538 15.49330152212640
TeikyoSat 4
1 49396U 21102B   25213.57803075  .00002560  00000-0  17090-3 0  9998
2 49396  97.4075 250.0902 0011247 317.1721  42.8630 15.07832472204536
Z-Sat
1 49399U 21102E   25213.86800770  .00004257  00000-0  23217-3 0  9995
2 49399  97.3771 253.8006 0016215 279.8062  80.1339 15.14787037205041
KOSEN 1
1 49402U 21102H   25213.57901115  .00006771  00000-0  30864-3 0  9992
2 49402  97.3674 257.3426 0014077 250.6151 109.3563 15.20887732205349
HO-113
1 50466U 21131B   25213.81615433  .00000476  00000-0  16229-3 0  9993
2 50466  98.5102 302.9096 0003722 354.0956   6.0188 14.40866219189117
Foresail-1
1 52766U 22057AL  25176.64799660  .13857605  27391-5  25307-3 0  9992
2 52766  97.5832 331.2310 0012137 233.7199 258.4922 16.46795272172486
SNUGLITE 2
1 52899U 22065F   25213.34869854  .00001135  00000-0  22904-3 0  9998
2 52899  98.1755 354.8300 0006581 314.8187  45.2479 14.63315750164204
UmKA 1 (RS40S)
1 57172U 23091G   25213.49100195  .00006491  00000-0  34193-3 0  9992
2 57172  97.5547 268.6039 0015305 146.8532 213.3663 15.15850557115494
CubeBel-2 (EU11S)
1 57175U 23091K   25213.83796686  .00009654  00000-0  44842-3 0  9995
2 57175  97.5544 270.4310 0012916 151.2430 208.9520 15.20142565115647
VERONIKA
1 58261U 23174F   25213.73299920  .00554044  12785-3  14383-2 0  9992
2 58261  97.4024 303.8467 0008915 242.7075 117.3293 15.94979961 97070
ENSO
1 58470U 23185J   25213.86474426  .00067171  00000-0  77961-3 0  9992
2 58470  97.3689 290.8923 0006273 231.5740 128.4955 15.61541313 93333
EIRSAT-1
1 58472U 23185L   25213.80966446  .00233221  00000-0  11295-2 0  9994
2 58472  97.3604 293.9325 0006964 233.9252 126.1372 15.81855068 93530
SONATE-2
1 59112U 24043Q   25213.31187296  .00017487  00000-0  48055-3 0  9993
2 59112  97.5192 345.6209 0009520 287.0285  72.9916 15.37239254 78437
MO-122
1 60209U 24125G   25213.50763187  .00019131  00000-0  51542-3 0  9996
2 60209  97.2749  64.5775 0016498 310.2634  49.7168 15.37733912 60088
GRBBeta
1 60237U 24128C   25213.69921586  .00003400  00000-0  25879-3 0  9995
2 60237  61.9902 254.2934 0055350  68.7465 291.9524 15.03005864 58186
Curium One
1 60242U 24128H   25213.51073164  .00006252  00000-0  42965-3 0  9995
2 60242  61.9799 252.4314 0055286  65.0252 295.6569 15.05746956 58209
ROBUSTA-3A
1 60243U 24128J   25213.53007464  .00005375  00000-0  37680-3 0  9991
2 60243  61.9872 253.3718 0054390  62.7000 297.9615 15.05264143 58198
CatSat
1 60246U 24125J   25213.50761424  .00018147  00000-0  58551-3 0  9992
2 60246  97.2555  63.1721 0039832 265.0425  94.6269 15.31409043 58089
HYPERVIEW-1G (RS66S)
1 61772U 24199AP  25213.88705718  .00020357  00000-0  55527-3 0  9999
2 61772  97.3463  82.6818 0012768  10.6961 349.4553 15.37395948 85142
AO-123
1 61781U 24199AY  25213.86383269  .00006430  00000-0  23038-3 0  9998
2 61781  97.3481  80.9355 0015922  15.6990 344.4741 15.28968718 85023
ZIMSAT 2
1 61783U 24199BA  25213.60532113  .00044664  00000-0  96972-3 0  9994
2 61783  97.3431  83.4697 0011690   8.4565 351.6878 15.44169102 88328
HADES-R (SO-124)
1 62690U 25009CK  25213.16923196  .00043165  00000-0  13756-2 0  9992
2 62690  97.4061 293.8800 0002280 238.5999 121.5020 15.32408988 30191
HYDRA-T
1 62692U 25009CM  25213.20986320  .00044503  00000-0  14023-2 0  9992
2 62692  97.4066 293.9778 0002209 230.2448 129.8600 15.32763240 30204
JINJUSat 1B
1 63210U 25052A   25213.22211284  .00011889  00000-0  52893-3 0  9998
2 63210  97.4345 106.6950 0005868 124.2180 235.9612 15.21623023 21251
NUSHSAT 1
1 63211U 25052B   25213.27314458  .00013453  00000-0  59208-3 0  9997
2 63211  97.4332 106.7614 0005806 128.1826 231.9934 15.21961972 21260
TEVEL2-4
1 63213U 25052D   25213.23196613  .00012810  00000-0  56975-3 0  9990
2 63213  97.4252 106.5148 0004645 137.1667 222.9932 15.21619156 21257
TEVEL2-5
1 63214U 25052E   25213.49638649  .00012664  00000-0  56364-3 0  9998
2 63214  97.4252 106.7729 0004669 136.5192 223.6413 15.21597998 21292
TEVEL2-6
1 63215U 25052F   25213.23686832  .00012704  00000-0  56620-3 0  9998
2 63215  97.4253 106.5111 0004646 137.8654 222.2940 15.21551139 21252
TEVEL2-1
1 63217U 25052H   25213.51877517  .00013154  00000-0  59000-3 0  9998
2 63217  97.4226 106.7005 0004387 149.2320 210.9174 15.21324554 21293
TEVEL2-2
1 63218U 25052J   25213.25591408  .00013071  00000-0  58637-3 0  9995
2 63218  97.4227 106.4420 0004341 150.7520 209.3960 15.21321548 21253
TEVEL2-3
1 63219U 25052K   25213.25626183  .00013071  00000-0  58650-3 0  9990
2 63219  97.4227 106.4408 0004329 150.3111 209.8371 15.21313350 21251
TEVEL2-8
1 63237U 25052AD  25213.23231409  .00011752  00000-0  54685-3 0  9999
2 63237  97.4293 106.2843 0008031 176.2655 183.8641 15.20066224 21232
TEVEL2-9
1 63238U 25052AE  25213.23692690  .00011670  00000-0  54423-3 0  9992
2 63238  97.4293 106.2815 0008101 176.8010 183.3278 15.19993188 21238
TEVEL2-7
1 63239U 25052AF  25213.24002611  .00011784  00000-0  54998-3 0  9995
2 63239  97.4293 106.2758 0008107 177.0676 183.0608 15.19961556 21230
HYDRA-W
1 63490U 25052BL  25213.19165078  .00030245  00000-0  11875-2 0  9994
2 63490  97.4240 106.8544 0011707 175.1514 184.9839 15.25598109 21277
HADES-ICM (SO-125)
1 63492U 25052BN  25213.22366492  .00027369  00000-0  10939-2 0  9996
2 63492  97.4244 106.8219 0011839 179.1278 180.9982 15.25021150 21271
